joomla templates top joomla templates template joomla

King Air Abend

Wetterbeurteilung mit Hilfe Webcam und ATIS

 

Webcam 1Webcam 2

(Zum vergrößern auf das Bild klicken)

Wetteranzeige

Aktuelles Platzwetter Stand 20.08.2019 06:25Z

AvgMin / Max
Windrichtung90 Deg40 / 100 Deg
Windgeschwindigkeit2 kt1 / 2 kt
Sichtweite>10000 m
Temperatur16 °C
Taupunkt8 °C
Feuchte60 %
QNH1022.3 hPa
QFE968.5 hPa
WolkenSKC

Aerodrome Terminal Information Service (ATIS) Coburg

METAR
EDQC 200620Z AUTO VRB02KT CAVOK 16/08 Q1022=

Wetterverlauf

Notam

C0503/18 - COBURG INFO CHANGED TO 128.680 (8.33 KHZ). 28 FEB 12:22 2018 UNTIL PERM. CREATED:
28 FEB 12:22 2018

C0132/18 - DIRECTION FINDING STATION (VDF) COMPLETELY WITHDRAWN. 15 FEB 00:01 2018 UNTIL PERM. CREATED: 19 JAN 10:58 2018

Windvorhersage

Verkehrslandeplatz Coburg Brandensteinsebene
Tower
Zur Brandensteinsebene
96450 Coburg

 

Telefon +49 (0) 95 61 / 9 20 98
Telefax +49 (0) 95 61 / 9 20 06
EMail tower@vlp-coburg.de